Regional Weather Roundup
Issued by NWS

Home | Current Version | Previous Version | Text Only | Print | Product List | Glossary Off
Versions: 1 2 3 4 5 6 7 8 9 10 11 12 13 14 15 16 17 18 19 20 21 22 23 24 25 26 27 28 29 30 31 32 33 34 35 36 37 38 39 40 41 42 43 44 45 46 47 48 49 50

000
ASUS45 KTFX 230504
RWRMT
MONTANA HOURLY WEATHER ROUNDUP
NATIONAL WEATHER SERVICE GREAT FALLS MT
1104 PM MDT FRI AUG 22 2014

NOTE: "FAIR" INDICATES FEW OR NO CLOUDS BELOW 12000 FEET WITH NO
SIGNIFICANT WEATHER AND/OR OBSTRUCTIONS TO VISIBILITY.

* THESE STATIONS ARE NOT UNDER NWS QUALITY CONTROL. THEY DO NOT
   REPORT WEATHER SUCH AS PRECIPITATION OR FOG.

MTZ001>007-043-230600-
WEST OF THE DIVIDE
CITY           SKY/WX    TMP DP  RH WIND       PRES   REMARKS
KALISPELL      CLOUDY    57  39  51 N16       30.15R
MISSOULA       CLOUDY    61  48  62 N8G16     30.09R
BUTTE          LGT RAIN  48  46  93 CALM      30.13S
MULLAN PASS    CLOUDY    46  43  89 VRB3      30.16S
* ESSEX        N/A       50  41  71 SE4        N/A
* LINCOLN      N/A       51  43  74 NE8G17     N/A
* LOOKOUT PASS N/A       53  45  74 NW6        N/A
* POLSON       N/A       57  41  55 NE5        N/A
* RONAN APT    CLOUDY    57  46  67 N/A        N/A
* SEELEY LAKE  N/A       53  49  86 SE3G10     N/A
* THOMP F APT  MOCLDY    46  44  93 N6         N/A
$$

MTZ008-052>055-230600-
SOUTHWEST MONTANA
CITY           SKY/WX    TMP DP  RH WIND       PRES   REMARKS
BOZEMAN        LGT RAIN  54  52  93 CALM      30.07F
DILLON         CLOUDY    52  48  86 NE9       30.07F
W YELLOWSTONE  CLOUDY    46  45  96 SW3       30.11S
* THREE FORKS  CLOUDY    54  36  51 N/A        N/A
* BOULDER HILL N/A       48  45  89 N9G17      N/A
* MONIDA PASS  N/A       45  45 100 N2         N/A
* RAYNOLDS PAS N/A       46  -2  13 N4         N/A
* WHITEHALL    N/A       53  50  90 E4G9       N/A
* WISE RIVER   N/A       48  46  93 S2G7       N/A
$$

MTZ009>010-012-014-046-048-049-054-230600-
EAST SLOPES AND CENTRAL MONTANA
CITY           SKY/WX    TMP DP  RH WIND       PRES   REMARKS
CUT BANK       LGT RAIN  46  45  96 N20G26    30.23F
GREAT FALLS    FOG       48  48 100 NW13      30.14S
HELENA         LGT RAIN  54  48  80 N15       30.12R
MALMSTROM AFB  CLOUDY    50  48  93 N17G24    30.15S
* CONRAD       CLOUDY    48  48 100 NW10G20    N/A
* DEARBORN     N/A       51  48  90 NE10G15    N/A
* EAST GLACIER N/A       42  41  96 NE16G22    N/A
* MONARCH      N/A       49  46  89 VRB11      N/A
* PENDROY      N/A       46  45  96 VRB17G23    N/A
* SAINT MARY   N/A       43  42  96 N5         N/A
* SWEET GRASS  N/A       46  46 100 N24        N/A
$$

MTZ011-013-016-021-035-040-045-047-050-051-230600-
NORTH CENTRAL MONTANA
CITY           SKY/WX    TMP DP  RH WIND       PRES   REMARKS
HAVRE          LGT RAIN  55  54  96 NE17      30.14F
LEWISTOWN      RAIN      55  54  96 CALM      30.09F VSB 2 1/2
* CHESTER      N/A       53  52  96 NE7G14     N/A
* DENTON       N/A       56  54  93 NE10       N/A
* GEYSER       N/A       54  50  86 N/A        N/A
* JUDITH GAP   N/A       52  52 100 N14G19     N/A
* LOMA         N/A       58  56  93 N13        N/A
$$

MTZ017>020-022>027-061-062-230600-
NORTHEAST MONTANA
CITY           SKY/WX    TMP DP  RH WIND       PRES   REMARKS
GLASGOW        CLOUDY    63  54  73 E15       30.11R
GLENDIVE       CLOUDY    61  61 100 NE15G21   30.08S
JORDAN         CLOUDY    61  57  87 E15       30.06F
SIDNEY         CLOUDY    63  57  81 NE12G17   30.12S
WOLF POINT     CLOUDY    64  54  70 E15       30.10F
* BEAVER HILL  N/A       61  59  93 E18G25     N/A
* CIRCLE       N/A       61  57  87 NE12G18    N/A
* LINDSAY DVD  N/A       58  58 100 NE15G22    N/A
* SACO         N/A       62  53  73 NE11G16    N/A
$$

MTZ028>042-056>058-230600-
SOUTHCENTRAL AND SOUTHEAST MONTANA
CITY           SKY/WX    TMP DP  RH WIND       PRES   REMARKS
BAKER          CLOUDY    64  61  90 E15       30.05F
BILLINGS       HVY RAIN  57  57 100 N10       30.01F VSB 2
LIVINGSTON     LGT RAIN  54  50  86 NE7       30.07F
MILES CITY     CLOUDY    63  61  93 NE14      30.01F
* LAUREL APT   CLOUDY    59  55  87 N7         N/A
* ROUNDUP APT  CLOUDY    59  55  87 N8         N/A
* ALZADA       N/A       63  61  93 NE8        N/A
* HYSHAM       N/A       62  58  87 E10G15     N/A
* LAME DEER    N/A       59  58  97 E5G10      N/A
* REED POINT   N/A       57  55  93 SW6        N/A
* ROSCOE HILL  N/A       52  49  90 SW1        N/A
$$

REGIONAL REPORTS...DAKOTAS
CITY           SKY/WX    TMP DP  RH WIND       PRES   REMARKS
WILLISTON      CLOUDY    63  55  75 NE9       30.14R
DICKINSON      HVY RAIN  63  61  93 E14       30.08R VSB 3
BEACH          FOG       61  61 100 E17       30.09S
CROSBY         CLOUDY    59  57  93 NE13G18   30.19R
TIOGA          CLOUDY    59  59 100 E12       30.18S
WATFORD CITY   CLOUDY    61  57  87 E9        30.11S
BISMARCK       CLOUDY    66  63  90 E10       30.09S
GRAND FORKS    FOG       64  63  97 N10       30.09R
FARGO          CLOUDY    68  64  87 N10       30.06S
BUFFALO SD     CLOUDY    66  61  84 E17       29.97F
RAPID CITY     CLOUDY    66  64  93 NE9       30.00F
$$

REGIONAL REPORTS...WYOMING/IDAHO/WASHINGTON
CITY           SKY/WX    TMP DP  RH WIND       PRES   REMARKS
GILLETTE       CLOUDY    61  59  93 E12       30.02F
SHERIDAN       CLOUDY    59  55  87 CALM      29.99F
CODY           CLOUDY    55  52  90 NE7       30.06S
YELLOWSTONE LA CLOUDY    45  41  86 CALM      30.15F
SALMON         CLOUDY    57  43  60 CALM      30.05R
MULLAN PASS    CLOUDY    46  43  89 VRB3      30.16S
SAND POINT     CLOUDY    63  45  52 NE18G24   30.11S
SPOKANE        MOCLDY    63  48  58 NE8       30.07R
$$

REGIONAL REPORTS...ALBERTA
CITY           SKY/WX    TMP DP  RH WIND       PRES   REMARKS
LETHBRIDGE     LGT RAIN  48  46  93 N9G17     30.31F VSB 3
MEDICINE HAT   RAIN      50  48  93 N13G18    30.28S

$$



USA.gov is the U.S. government's official web portal to all federal, state and local government web resources and services.